N825MD LERS-LFBD

Flight info

Callsign N825MD
Flight time 0h 57m
Altitude 34000
Route ARBEK1V ARBEK N863 GIROM DCT VELIN VELIN2L
Aircraft C25B/M-SDE2E3FGHRWXY/LB1

Departure

Time 2026-04-21 18:36
Airport Reus Airport (LERS)

Arrival

Time 2026-04-21 19:33
Airport Bordeaux–Mérignac Airport (LFBD)
Time Latitude Longitude Altitude Speed Heading
2026-04-21 18:16 41.14704 1.15678 237 ft 0 kts 339°
2026-04-21 18:26 41.14705 1.15678 237 ft 1 kts 348°
2026-04-21 18:26 41.14706 1.15678 237 ft 0 kts 352°
2026-04-21 18:27 41.14709 1.15678 237 ft 1 kts 20°
2026-04-21 18:27 41.14709 1.15689 237 ft 4 kts 147°
2026-04-21 18:28 41.14668 1.15698 237 ft 8 kts 161°
2026-04-21 18:28 41.14635 1.15751 237 ft 9 kts 76°
2026-04-21 18:28 41.14660 1.15837 237 ft 11 kts 69°
2026-04-21 18:28 41.14689 1.15935 237 ft 12 kts 69°
2026-04-21 18:29 41.14720 1.16044 237 ft 13 kts 71°
2026-04-21 18:29 41.14754 1.16162 237 ft 14 kts 69°
2026-04-21 18:29 41.14792 1.16291 237 ft 16 kts 69°
2026-04-21 18:29 41.14832 1.16428 237 ft 16 kts 69°
2026-04-21 18:30 41.14874 1.16572 237 ft 17 kts 68°
2026-04-21 18:30 41.14918 1.16722 237 ft 18 kts 69°
2026-04-21 18:30 41.14963 1.16879 237 ft 19 kts 67°
2026-04-21 18:30 41.15012 1.17041 237 ft 19 kts 69°
2026-04-21 18:31 41.15063 1.17208 237 ft 20 kts 71°
2026-04-21 18:31 41.15111 1.17381 237 ft 20 kts 69°
2026-04-21 18:31 41.15163 1.17555 237 ft 21 kts 68°
2026-04-21 18:31 41.15214 1.17734 237 ft 21 kts 69°
2026-04-21 18:32 41.15267 1.17916 237 ft 21 kts 69°
2026-04-21 18:32 41.15321 1.18101 237 ft 22 kts 69°
2026-04-21 18:32 41.15338 1.18224 237 ft 12 kts 123°
2026-04-21 18:32 41.15300 1.18255 237 ft 0 kts 158°
2026-04-21 18:35 41.15299 1.18256 237 ft 2 kts 159°
2026-04-21 18:36 41.15245 1.18283 236 ft 10 kts 163°
2026-04-21 18:36 41.15171 1.18190 237 ft 38 kts 248°
2026-04-21 18:36 41.14920 1.17360 281 ft 151 kts 247°
2026-04-21 18:36 41.14494 1.15895 1202 ft 191 kts 246°
2026-04-21 18:37 41.13902 1.14038 1682 ft 248 kts 243°
2026-04-21 18:37 41.13112 1.11972 2145 ft 241 kts 237°
2026-04-21 18:37 41.12153 1.10190 2263 ft 236 kts 231°
2026-04-21 18:37 41.11169 1.08432 2187 ft 241 kts 233°
2026-04-21 18:38 41.10238 1.06632 2411 ft 232 kts 235°
2026-04-21 18:38 41.09549 1.04676 2399 ft 239 kts 250°
2026-04-21 18:38 41.08986 1.02600 2470 ft 240 kts 243°
2026-04-21 18:38 41.08163 1.00554 2686 ft 263 kts 238°
2026-04-21 18:39 41.07263 0.98414 3065 ft 257 kts 239°
2026-04-21 18:39 41.06432 0.96418 3578 ft 232 kts 238°
2026-04-21 18:39 41.05691 0.94608 4075 ft 226 kts 239°
2026-04-21 18:39 41.04921 0.92751 4787 ft 226 kts 238°
2026-04-21 18:40 41.04208 0.90875 5412 ft 231 kts 244°
2026-04-21 18:40 41.03470 0.88977 6078 ft 233 kts 239°
2026-04-21 18:40 41.02986 0.87711 6465 ft 235 kts 250°
2026-04-21 18:40 41.03279 0.84854 7272 ft 248 kts 295°
2026-04-21 18:41 41.04554 0.83244 7961 ft 266 kts 331°
2026-04-21 18:41 41.06333 0.82445 8792 ft 273 kts 340°
2026-04-21 18:41 41.08176 0.81755 9690 ft 278 kts 346°
2026-04-21 18:41 41.10078 0.81270 10546 ft 280 kts 347°
2026-04-21 18:42 41.12029 0.80962 11408 ft 283 kts 353°
2026-04-21 18:42 41.14000 0.80823 12281 ft 285 kts 357°
2026-04-21 18:42 41.15989 0.80887 13175 ft 287 kts
2026-04-21 18:42 41.17990 0.81145 13875 ft 297 kts
2026-04-21 18:43 41.20109 0.81651 14272 ft 308 kts 11°
2026-04-21 18:43 41.22094 0.82334 15715 ft 284 kts 13°
2026-04-21 18:43 41.23983 0.83193 16519 ft 291 kts 18°
2026-04-21 18:43 41.25863 0.84264 17255 ft 296 kts 23°
2026-04-21 18:44 41.27705 0.85548 18045 ft 301 kts 27°
2026-04-21 18:44 41.29489 0.87044 18736 ft 305 kts 32°
2026-04-21 18:44 41.31195 0.88746 19429 ft 309 kts 37°
2026-04-21 18:44 41.32814 0.90646 20132 ft 313 kts 42°
2026-04-21 18:45 41.34333 0.92741 20840 ft 316 kts 46°
2026-04-21 18:45 41.35729 0.95027 21552 ft 320 kts 51°
2026-04-21 18:45 41.36992 0.97496 22249 ft 325 kts 56°
2026-04-21 18:45 41.38108 1.00123 22958 ft 329 kts 62°
2026-04-21 18:46 41.39066 1.02906 23621 ft 333 kts 67°
2026-04-21 18:46 41.39842 1.05821 24222 ft 336 kts 71°
2026-04-21 18:46 41.40428 1.08850 24815 ft 339 kts 77°
2026-04-21 18:46 41.41078 1.11876 25368 ft 341 kts 65°
2026-04-21 18:47 41.42277 1.14591 25975 ft 341 kts 50°
2026-04-21 18:47 41.43974 1.16835 26578 ft 340 kts 34°
2026-04-21 18:47 41.46014 1.18402 27192 ft 338 kts 19°
2026-04-21 18:47 41.48262 1.19197 27953 ft 331 kts
2026-04-21 18:48 41.50531 1.19197 28730 ft 324 kts 349°
2026-04-21 18:48 41.52680 1.18420 29539 ft 317 kts 334°
2026-04-21 18:48 41.54586 1.17005 30309 ft 312 kts 324°
2026-04-21 18:48 41.56371 1.15383 31011 ft 310 kts 324°
2026-04-21 18:49 41.58249 1.13969 31775 ft 309 kts 330°
2026-04-21 18:49 41.60219 1.12829 32550 ft 309 kts 336°
2026-04-21 18:49 41.61579 1.12248 33064 ft 310 kts 341°
2026-04-21 18:49 41.64451 1.11720 33884 ft 318 kts 352°
2026-04-21 18:50 41.66705 1.11636 33883 ft 328 kts 354°
2026-04-21 18:50 41.71340 1.11202 33883 ft 340 kts 349°
2026-04-21 18:51 41.76136 1.10661 33881 ft 351 kts 351°
2026-04-21 18:51 41.81067 1.10153 33871 ft 359 kts 351°
2026-04-21 18:52 41.86106 1.09608 33857 ft 366 kts 351°
2026-04-21 18:52 41.91210 1.09067 33856 ft 370 kts 351°
2026-04-21 18:53 41.96371 1.08513 33851 ft 373 kts 351°
2026-04-21 18:53 42.01571 1.07957 33849 ft 376 kts 351°
2026-04-21 18:54 42.06794 1.07397 33863 ft 378 kts 351°
2026-04-21 18:54 42.11190 1.06925 33880 ft 379 kts 351°
2026-04-21 18:55 42.16451 1.06358 33892 ft 380 kts 351°
2026-04-21 18:55 42.21726 1.05792 33913 ft 381 kts 351°
2026-04-21 18:56 42.27017 1.05225 33929 ft 381 kts 351°
2026-04-21 18:56 42.32309 1.04650 33953 ft 381 kts 351°
2026-04-21 18:57 42.37601 1.04078 33954 ft 381 kts 351°
2026-04-21 18:57 42.42888 1.03505 33951 ft 381 kts 351°
2026-04-21 18:58 42.48180 1.02932 33967 ft 381 kts 351°
2026-04-21 18:58 42.53466 1.02355 33961 ft 382 kts 351°
2026-04-21 18:59 42.58701 1.01787 33958 ft 373 kts 351°
2026-04-21 18:59 42.63829 1.01224 33944 ft 366 kts 351°
2026-04-21 19:00 42.68882 1.00670 33931 ft 362 kts 351°
2026-04-21 19:00 42.73877 1.00124 33931 ft 359 kts 351°
2026-04-21 19:01 42.78781 0.99257 33925 ft 349 kts 339°
2026-04-21 19:01 42.83449 0.97540 33915 ft 345 kts 340°
2026-04-21 19:02 42.88061 0.95837 33904 ft 343 kts 340°
2026-04-21 19:02 42.92772 0.94096 33901 ft 354 kts 340°
2026-04-21 19:03 42.97589 0.92316 33889 ft 363 kts 340°
2026-04-21 19:03 43.02506 0.90496 33886 ft 369 kts 340°
2026-04-21 19:04 43.07489 0.88650 33874 ft 373 kts 340°
2026-04-21 19:04 43.12522 0.86779 33868 ft 376 kts 340°
2026-04-21 19:05 43.17549 0.84909 33855 ft 378 kts 340°
2026-04-21 19:05 43.22662 0.83003 33858 ft 379 kts 340°
2026-04-21 19:06 43.27761 0.81098 33857 ft 380 kts 340°
2026-04-21 19:06 43.32867 0.79188 33853 ft 381 kts 340°
2026-04-21 19:07 43.37981 0.77274 33852 ft 381 kts 340°
2026-04-21 19:07 43.43104 0.75350 33850 ft 382 kts 340°
2026-04-21 19:08 43.48231 0.73421 33846 ft 382 kts 340°
2026-04-21 19:08 43.53357 0.71492 33848 ft 382 kts 340°
2026-04-21 19:09 43.58489 0.69556 33844 ft 382 kts 340°
2026-04-21 19:09 43.63622 0.67615 33844 ft 383 kts 340°
2026-04-21 19:10 43.68757 0.65672 33841 ft 383 kts 340°
2026-04-21 19:10 43.73897 0.63722 33843 ft 383 kts 340°
2026-04-21 19:11 43.79066 0.61757 33843 ft 383 kts 340°
2026-04-21 19:11 43.84211 0.59798 33847 ft 383 kts 340°
2026-04-21 19:12 43.88483 0.58168 33843 ft 383 kts 339°
2026-04-21 19:12 43.94454 0.55888 33839 ft 383 kts 340°
2026-04-21 19:13 43.99625 0.53909 33467 ft 380 kts 340°
2026-04-21 19:13 44.02113 0.52960 33011 ft 371 kts 340°
2026-04-21 19:13 44.04614 0.52002 32546 ft 365 kts 339°
2026-04-21 19:13 44.07043 0.51063 32088 ft 360 kts 339°
2026-04-21 19:14 44.09443 0.50143 31632 ft 356 kts 339°
2026-04-21 19:14 44.11824 0.49225 31179 ft 353 kts 339°
2026-04-21 19:14 44.14184 0.48320 30727 ft 350 kts 339°
2026-04-21 19:14 44.16522 0.47416 30278 ft 348 kts 339°
2026-04-21 19:15 44.18758 0.46267 29796 ft 339 kts 328°
2026-04-21 19:15 44.20672 0.44407 29258 ft 332 kts 314°
2026-04-21 19:15 44.22220 0.42061 28751 ft 327 kts 306°
2026-04-21 19:15 44.23504 0.39463 28254 ft 323 kts 298°
2026-04-21 19:16 44.24545 0.36655 27780 ft 321 kts 294°
2026-04-21 19:16 44.25525 0.33910 27323 ft 320 kts 296°
2026-04-21 19:16 44.26613 0.31214 26872 ft 319 kts 298°
2026-04-21 19:16 44.27709 0.28528 26434 ft 318 kts 297°
2026-04-21 19:17 44.29826 0.23135 25581 ft 316 kts 297°
2026-04-21 19:17 44.30880 0.20455 25174 ft 315 kts 297°
2026-04-21 19:17 44.31939 0.17775 24775 ft 314 kts 297°
2026-04-21 19:18 44.32990 0.15102 24389 ft 314 kts 297°
2026-04-21 19:18 44.34040 0.12432 24006 ft 313 kts 297°
2026-04-21 19:18 44.35085 0.09766 23633 ft 313 kts 297°
2026-04-21 19:18 44.36132 0.07100 23228 ft 313 kts 297°
2026-04-21 19:19 44.37173 0.04439 22731 ft 313 kts 297°
2026-04-21 19:19 44.38227 0.01748 22099 ft 315 kts 297°
2026-04-21 19:19 44.39276 -0.00931 21478 ft 313 kts 297°
2026-04-21 19:19 44.40319 -0.03600 20867 ft 312 kts 297°
2026-04-21 19:20 44.41354 -0.06253 20271 ft 310 kts 297°
2026-04-21 19:20 44.42382 -0.08889 19689 ft 308 kts 297°
2026-04-21 19:20 44.43404 -0.11511 19112 ft 306 kts 297°
2026-04-21 19:20 44.44422 -0.14125 18553 ft 305 kts 297°
2026-04-21 19:21 44.45433 -0.16729 17977 ft 304 kts 297°
2026-04-21 19:21 44.46440 -0.19313 17343 ft 302 kts 297°
2026-04-21 19:21 44.47346 -0.21658 16773 ft 301 kts 297°
2026-04-21 19:21 44.48345 -0.24218 16169 ft 297 kts 296°
2026-04-21 19:22 44.49317 -0.26742 15570 ft 292 kts 296°
2026-04-21 19:22 44.50284 -0.29224 14980 ft 288 kts 296°
2026-04-21 19:22 44.51229 -0.31684 14400 ft 285 kts 296°
2026-04-21 19:22 44.52172 -0.34106 13833 ft 282 kts 296°
2026-04-21 19:23 44.53090 -0.36500 13225 ft 276 kts 296°
2026-04-21 19:23 44.54000 -0.38843 12606 ft 272 kts 296°
2026-04-21 19:23 44.54888 -0.41159 11988 ft 268 kts 296°
2026-04-21 19:23 44.55773 -0.43445 11393 ft 265 kts 296°
2026-04-21 19:24 44.56638 -0.45708 10805 ft 262 kts 296°
2026-04-21 19:24 44.57505 -0.47946 10233 ft 260 kts 295°
2026-04-21 19:24 44.58354 -0.50171 9663 ft 258 kts 295°
2026-04-21 19:24 44.59208 -0.52383 9044 ft 257 kts 296°
2026-04-21 19:25 44.60037 -0.54555 8448 ft 255 kts 296°
2026-04-21 19:25 44.60878 -0.56738 7854 ft 253 kts 296°
2026-04-21 19:25 44.61707 -0.58912 7269 ft 252 kts 296°
2026-04-21 19:25 44.62533 -0.61067 6693 ft 250 kts 296°
2026-04-21 19:26 44.63354 -0.63213 6126 ft 248 kts 296°
2026-04-21 19:26 44.64170 -0.65349 5537 ft 248 kts 296°
2026-04-21 19:26 44.64967 -0.67534 4940 ft 248 kts 290°
2026-04-21 19:26 44.65282 -0.69810 4848 ft 228 kts 274°
2026-04-21 19:27 44.65475 -0.71959 4840 ft 219 kts 276°
2026-04-21 19:27 44.65665 -0.74124 4621 ft 230 kts 274°
2026-04-21 19:27 44.65838 -0.76392 4318 ft 233 kts 275°
2026-04-21 19:27 44.66273 -0.78538 4006 ft 227 kts 296°
2026-04-21 19:28 44.67122 -0.80357 3753 ft 218 kts 313°
2026-04-21 19:28 44.67832 -0.81312 3532 ft 208 kts 319°
2026-04-21 19:28 44.68852 -0.82741 3201 ft 210 kts 316°
2026-04-21 19:28 44.69979 -0.84018 2868 ft 208 kts 339°
2026-04-21 19:29 44.71309 -0.84624 2545 ft 193 kts 356°
2026-04-21 19:29 44.72577 -0.84599 2317 ft 173 kts 17°
2026-04-21 19:29 44.73689 -0.84126 2183 ft 164 kts 32°
2026-04-21 19:29 44.74630 -0.83257 2059 ft 160 kts 45°
2026-04-21 19:30 44.75325 -0.82121 2021 ft 149 kts 52°
2026-04-21 19:30 44.76095 -0.81163 2015 ft 141 kts 42°
2026-04-21 19:30 44.76781 -0.80440 1997 ft 118 kts 43°
2026-04-21 19:30 44.77469 -0.79685 1655 ft 115 kts 49°
2026-04-21 19:31 44.77928 -0.78893 1583 ft 102 kts 57°
2026-04-21 19:31 44.78331 -0.78137 1475 ft 90 kts 55°
2026-04-21 19:31 44.78751 -0.77472 1160 ft 94 kts 50°
2026-04-21 19:31 44.79217 -0.76868 938 ft 95 kts 45°
2026-04-21 19:32 44.79691 -0.76158 831 ft 102 kts 49°
2026-04-21 19:32 44.80150 -0.75436 726 ft 98 kts 45°
2026-04-21 19:32 44.80612 -0.74781 635 ft 92 kts 43°
2026-04-21 19:32 44.81048 -0.74139 521 ft 89 kts 43°
2026-04-21 19:33 44.81504 -0.73500 333 ft 94 kts 46°
2026-04-21 19:33 44.81946 -0.72849 197 ft 90 kts 47°
2026-04-21 19:33 44.82348 -0.72276 164 ft 71 kts 47°
2026-04-21 19:33 44.82612 -0.71894 168 ft 26 kts 45°
2026-04-21 19:34 44.82641 -0.71853 169 ft 4 kts 43°
2026-04-21 19:34 44.82674 -0.71808 169 ft 8 kts 44°
2026-04-21 19:34 44.82734 -0.71724 167 ft 18 kts 45°
2026-04-21 19:34 44.82844 -0.71567 166 ft 26 kts 45°
2026-04-21 19:35 44.82985 -0.71359 163 ft 31 kts 47°
2026-04-21 19:35 44.83340 -0.70906 164 ft 35 kts 45°
2026-04-21 19:35 44.83516 -0.70643 161 ft 39 kts 45°
2026-04-21 19:36 44.83713 -0.70354 157 ft 42 kts 47°
2026-04-21 19:36 44.83849 -0.70142 157 ft 0 kts 59°
2026-04-21 19:36 44.83848 -0.70125 156 ft 8 kts 110°
2026-04-21 19:36 44.83734 -0.70026 156 ft 32 kts 150°
2026-04-21 19:37 44.83618 -0.69949 156 ft 8 kts 107°
2026-04-21 19:37 44.83634 -0.69893 156 ft 6 kts 58°
2026-04-21 19:37 44.83631 -0.69857 156 ft 4 kts 90°
2026-04-21 19:37 44.83637 -0.69838 156 ft 0 kts 41°